Location: Beuerbach
(48.1459°N, 10.9174°E)
Time: 08:25:46
(UTC+00:00)

Helios 1A Rocket - Pass Details

Date: 23 May 2024
Orbit: 521 x 543 km, 98.3° (Epoch: 15 June)

Event Time Altitude Azimuth Distance (km) Brightness Sun altitude
Exits shadow 00:07:13 47° 139° (SE) 715 3.1 -20.2°
Maximum altitude 00:08:10 70° 73° (ENE) 575 2.9 -20.1°
Drops below altitude 10° 00:12:02 10° 350° (N) 1,795 6.4 -20.0°
Sets 00:14:08 0° 348° (NNW) 2,686 7.4 -19.9°
